Flag for Switzerland Weather past 2 weeks in Chur, Graubünden, Switzerland

Now
70 °F

Passing clouds.


Feels Like: 74 °F
Forecast: 67 / 98 °F
Wind: 6 mph from Southwest

Location: Chur-Ems

Current Time: Jul 2, 2015 at 6:09:25 AM

Latest Report: Jul 2, 2015 at 5:00 AM


Visibility: 11 mi

Pressure: 30.14 "Hg

Humidity: 69%

Dew point: 60 °F

Location of ChurLocation

Historic Weather in Chur — Graph

°F

Chur temperature yesterday

Maximum temperature yesterday: 88 °F (at 5:00 PM)
Minimum temperature yesterday: 63 °F (at 6:00 AM)
Average temperature yesterday: 77 °F

Past Weeks' High & Low Weather Summary

 TemperatureHumidityPressure
High88 °F (Jul 1, 5:00 PM)95% (Jun 19, 12:00 AM)30.26 "Hg (Jun 19, 12:00 AM)
Low50 °F (Jun 24, 6:00 AM)28% (Jun 30, 3:00 PM)29.76 "Hg (Jun 23, 12:00 AM)
Average64 °F66%30.08 "Hg
* Reported Jun 17 4:00 AM — Jul 2 4:00 AM, Chur, Weather by CustomWeather, © 2015

Note: Actual official high and low records may vary slightly from our data, if they occured in-between our weather recording intervals... More about our weather records

Advertising

Chur weather history for previous 24 hours

 ConditionsComfort  
Time TempWeatherWind HumidityBarometerVisibility
4:00 AM
Thu, Jul 2
71 °FMild.2 mph70%30.13 "HgN/A
3:00 AM72 °FMild.2 mph66%30.12 "HgN/A
2:00 AM70 °FPassing clouds.3 mph72%30.12 "Hg11 mi
1:00 AM70 °FMild.2 mph71%30.11 "HgN/A
12:00 AM73 °FMild.1 mph63%30.10 "HgN/A
11:00 PM
Wed, Jul 1
73 °FPassing clouds.1 mph63%30.08 "Hg11 mi
10:00 PM76 °FMild.1 mph57%30.05 "HgN/A
9:00 PM80 °FWarm.5 mph45%30.00 "HgN/A
8:00 PM82 °FPassing clouds.7 mph46%29.97 "Hg11 mi
7:00 PM86 °FWarm.12 mph42%29.94 "HgN/A
6:00 PM87 °FWarm.16 mph40%29.93 "HgN/A
5:00 PM88 °FPassing clouds.14 mph41%29.93 "Hg12 mi
4:00 PM88 °FPleasantly warm.14 mph38%29.94 "HgN/A
3:00 PM88 °FPleasantly warm.15 mph37%29.94 "HgN/A
2:00 PM86 °FWarm.15 mph40%29.96 "HgN/A
1:00 PM85 °FWarm.12 mph40%29.98 "HgN/A
12:00 PM85 °FWarm.3 mph41%30.00 "HgN/A
11:00 AM80 °FWarm.3 mph40%30.03 "HgN/A
10:00 AM77 °FWarm.5 mph46%30.06 "HgN/A
9:00 AM74 °FMild.6 mph48%30.08 "HgN/A
8:00 AM70 °FSunny.8 mph54%30.10 "Hg9 mi
7:00 AM65 °FMild.5 mph63%30.13 "HgN/A
6:00 AM63 °FMild.3 mph67%30.13 "HgN/A
Weather by CustomWeather, © 2015

See weather overviewHow to use our weather pages